Weather History for Dumas, TX

Change the Weather History Date:

Monday, October 8, 2012

  Actual Average (KBGD) Record (KBGD)
Temperature  
Mean Temperature 50 °F 63 °F  
Max Temperature 68 °F 76 °F 95 °F (1979)
Min Temperature 32 °F 51 °F 29 °F (1970)
Degree Days  
Heating Degree Days 15 4  
Month to date heating degree days 28  
Since 1 July heating degree days 56  
Cooling Degree Days 0 3  
Month to date cooling degree days 26  
Year to date cooling degree days 1811  
Moisture  
Dew Point 32 °F    
Average Humidity 58    
Maximum Humidity 87    
Minimum Humidity 28    
Precipitation  
Precipitation 0.00 in 0.05 in 1.34 in (2006)
Month to date precipitation 0.57  
Year to date precipitation 18.96  
Snow  
Snow 0.00 in - 6.50 in (1970)
Month to date snowfall  
Since 1 July snowfall  
Since 1 September snowfall  
Snow Depth -    
Sea Level Pressure  
Sea Level Pressure 30.03 in    
Wind  
Wind Speed 12 mph (SSW)    
Max Wind Speed 25 mph    
Max Gust Speed 31 mph    
Visibility 10 miles    
Events      
T = Trace of Precipitation, MM = Missing Value Source: NWS Daily Summary

Daily Weather History Graph

Daily Weather History Graph

Search for Another Location

Airport:

Trip Planner

Search our weather history database for the weather conditions in past years. The results will help you decide how hot, cold, wet, or windy it might be!

Date:

Astronomy

Oct. 08, 2012 Rise Set
Actual Time 7:49 AM CDT 7:21 PM CDT
Civil Twilight 7:23 AM CDT 7:46 PM CDT
Nautical Twilight 6:53 AM CDT 8:16 PM CDT
Astronomical Twilight 6:24 AM CDT 8:45 PM CDT
Moon 12:43 AM CDT (10/8) 3:00 PM CDT (10/8)
Length of Visible Light 12h 23m
Length of Day
11h 31m
Last Quarter, 46% of the Moon is Illuminated
Oct 8
Last Quarter
Oct 15
New
Oct 21
First Quarter
Oct 29
Full
Nov 6
Last Quarter

Hourly Weather History & Observations

Time (CDT) Temp. Windchill Dew Point Humidity Pressure Visibility Wind Dir Wind Speed Gust Speed Precip Events Conditions
12:15 AM 33.8 °F 27.0 °F 30.2 °F 87% 30.17 in 10.0 mi SSW 8.1 mph - N/A   Clear
12:35 AM 33.8 °F 26.4 °F 30.2 °F 87% 30.16 in 10.0 mi SSW 9.2 mph - N/A   Clear
12:55 AM 33.8 °F 26.4 °F 28.4 °F 81% 30.16 in 10.0 mi SSW 9.2 mph - N/A   Clear
1:15 AM 33.8 °F 25.8 °F 28.4 °F 81% 30.16 in 10.0 mi SSW 10.4 mph - N/A   Clear
1:35 AM 33.8 °F 26.4 °F 28.4 °F 81% 30.16 in 10.0 mi SSW 9.2 mph - N/A   Clear
1:55 AM 33.8 °F 26.4 °F 28.4 °F 81% 30.16 in 10.0 mi SSW 9.2 mph - N/A   Clear
2:15 AM 33.8 °F 25.8 °F 28.4 °F 81% 30.16 in 10.0 mi SW 10.4 mph - N/A   Clear
2:35 AM 33.8 °F 25.8 °F 28.4 °F 81% 30.15 in 10.0 mi SW 10.4 mph - N/A   Clear
2:55 AM 33.8 °F 25.3 °F 28.4 °F 81% 30.15 in 10.0 mi SW 11.5 mph - N/A   Clear
3:15 AM 33.8 °F 25.3 °F 28.4 °F 81% 30.15 in 10.0 mi SW 11.5 mph - N/A   Clear
3:35 AM 33.8 °F 25.3 °F 28.4 °F 81% 30.14 in 10.0 mi SW 11.5 mph - N/A   Clear
3:55 AM 33.8 °F 24.3 °F 28.4 °F 81% 30.13 in 10.0 mi SW 13.8 mph - N/A   Clear
4:15 AM 33.8 °F 24.3 °F 28.4 °F 81% 30.12 in 10.0 mi SW 13.8 mph - N/A   Clear
4:35 AM 35.6 °F 26.2 °F 28.4 °F 75% 30.11 in 10.0 mi SW 15.0 mph - N/A   Clear
4:55 AM 35.6 °F 27.1 °F 28.4 °F 75% 30.11 in 10.0 mi SW 12.7 mph - N/A   Clear
5:15 AM 33.8 °F 25.3 °F 28.4 °F 81% 30.11 in 10.0 mi SW 11.5 mph - N/A   Clear
5:35 AM 33.8 °F 25.8 °F 28.4 °F 81% 30.11 in 10.0 mi WSW 10.4 mph - N/A   Clear
5:55 AM 33.8 °F 25.3 °F 28.4 °F 81% 30.11 in 10.0 mi WSW 11.5 mph - N/A   Clear
6:15 AM 33.8 °F 25.3 °F 28.4 °F 81% 30.10 in 10.0 mi WSW 11.5 mph - N/A   Clear
6:35 AM 33.8 °F 24.8 °F 28.4 °F 81% 30.10 in 10.0 mi WSW 12.7 mph - N/A   Clear
6:55 AM 33.8 °F 25.3 °F 28.4 °F 81% 30.10 in 10.0 mi WSW 11.5 mph - N/A   Clear
7:15 AM 33.8 °F 24.8 °F 28.4 °F 81% 30.10 in 10.0 mi WSW 12.7 mph - N/A   Clear
7:35 AM 33.8 °F 25.3 °F 28.4 °F 81% 30.10 in 10.0 mi WSW 11.5 mph - N/A   Clear
7:55 AM 32.0 °F 23.6 °F 28.4 °F 87% 30.10 in 10.0 mi SW 10.4 mph - N/A   Clear
8:15 AM 33.8 °F 25.3 °F 28.4 °F 81% 30.10 in 10.0 mi SW 11.5 mph - N/A   Clear
8:35 AM 35.6 °F 27.5 °F 30.2 °F 81% 30.10 in 10.0 mi SW 11.5 mph - N/A   Clear
8:55 AM 37.4 °F 29.8 °F 30.2 °F 75% 30.11 in 10.0 mi SW 11.5 mph - N/A   Clear
9:15 AM 39.2 °F 32.0 °F 30.2 °F 70% 30.11 in 10.0 mi SW 11.5 mph - N/A   Clear
9:35 AM 42.8 °F 35.4 °F 32.0 °F 66% 30.11 in 10.0 mi SW 15.0 mph - N/A   Clear
9:55 AM 44.6 °F 37.8 °F 32.0 °F 61% 30.11 in 10.0 mi SW 15.0 mph - N/A   Clear
10:15 AM 46.4 °F 39.8 °F 32.0 °F 57% 30.11 in 10.0 mi SW 16.1 mph - N/A   Clear
10:35 AM 48.2 °F - 32.0 °F 54% 30.10 in 10.0 mi SW 17.3 mph - N/A   Clear
10:55 AM 50.0 °F - 32.0 °F 50% 30.10 in 10.0 mi SW 17.3 mph - N/A   Clear
11:15 AM 50.0 °F - 33.8 °F 54% 30.09 in 10.0 mi SW 18.4 mph 24.2 mph N/A   Clear
11:35 AM 51.8 °F - 33.8 °F 50% 30.08 in 10.0 mi SSW 20.7 mph - N/A   Clear
11:55 AM 53.6 °F - 33.8 °F 47% 30.07 in 10.0 mi SSW 17.3 mph 23.0 mph N/A   Clear
12:15 PM 57.2 °F - 35.6 °F 44% 30.06 in 10.0 mi SSW 19.6 mph 25.3 mph N/A   Clear
12:35 PM 59.0 °F - 35.6 °F 42% 30.06 in 10.0 mi SW 18.4 mph 24.2 mph N/A   Clear
12:55 PM 59.0 °F - 35.6 °F 42% 30.04 in 10.0 mi SW 20.7 mph 29.9 mph N/A   Clear
1:15 PM 59.0 °F - 35.6 °F 42% 30.03 in 10.0 mi SSW 21.9 mph 27.6 mph N/A   Clear
1:35 PM 62.6 °F - 35.6 °F 37% 30.02 in 10.0 mi SSW 20.7 mph 26.5 mph N/A   Clear
1:55 PM 64.4 °F - 35.6 °F 34% 30.00 in 10.0 mi SSW 23.0 mph 28.8 mph N/A   Clear
2:15 PM 64.4 °F - 35.6 °F 34% 29.99 in 10.0 mi SW 21.9 mph 31.1 mph N/A   Clear
2:35 PM 66.2 °F - 35.6 °F 32% 29.98 in 10.0 mi SW 25.3 mph 28.8 mph N/A   Clear
2:55 PM 66.2 °F - 35.6 °F 32% 29.96 in 10.0 mi SSW 20.7 mph 25.3 mph N/A   Clear
3:15 PM 66.2 °F - 35.6 °F 32% 29.96 in 10.0 mi SSW 20.7 mph 25.3 mph N/A   Clear
3:35 PM 66.2 °F - 35.6 °F 32% 29.95 in 10.0 mi SW 18.4 mph 25.3 mph N/A   Clear
3:55 PM 68.0 °F - 35.6 °F 30% 29.95 in 10.0 mi SSW 19.6 mph - N/A   Clear
4:15 PM 66.2 °F - 33.8 °F 30% 29.94 in 10.0 mi SW 18.4 mph 25.3 mph N/A   Clear
4:35 PM 66.2 °F - 33.8 °F 30% 29.93 in 10.0 mi SW 15.0 mph - N/A   Clear
4:55 PM 68.0 °F - 33.8 °F 28% 29.93 in 10.0 mi SW 15.0 mph - N/A   Clear
5:15 PM 68.0 °F - 33.8 °F 28% 29.92 in 10.0 mi SW 12.7 mph - N/A   Clear
5:35 PM 66.2 °F - 33.8 °F 30% 29.91 in 10.0 mi SW 8.1 mph - N/A   Clear
5:55 PM 68.0 °F - 33.8 °F 28% 29.92 in 10.0 mi SW 9.2 mph - N/A   Clear
6:15 PM 64.4 °F - 33.8 °F 32% 29.91 in 10.0 mi SSW 5.8 mph - N/A   Clear
6:35 PM 64.4 °F - 33.8 °F 32% 29.91 in 10.0 mi SSW 6.9 mph - N/A   Clear
6:55 PM 62.6 °F - 33.8 °F 34% 29.91 in 10.0 mi SSW 6.9 mph - N/A   Clear
7:15 PM 60.8 °F - 33.8 °F 36% 29.91 in 10.0 mi South 5.8 mph - N/A   Clear
7:35 PM 59.0 °F - 33.8 °F 39% 29.90 in 10.0 mi SSE 6.9 mph - N/A   Clear
7:55 PM 57.2 °F - 33.8 °F 41% 29.91 in 10.0 mi SE 9.2 mph - N/A   Clear
8:35 PM 55.4 °F - 35.6 °F 47% 29.91 in 10.0 mi SE 10.4 mph - N/A   Clear
8:55 PM 57.2 °F - 37.4 °F 48% 29.91 in 10.0 mi SE 10.4 mph - N/A   Clear
9:15 PM 55.4 °F - 37.4 °F 51% 29.91 in 10.0 mi SE 10.4 mph - N/A   Clear
9:35 PM 55.4 °F - 37.4 °F 51% 29.91 in 10.0 mi SE 11.5 mph - N/A   Clear
9:55 PM 53.6 °F - 37.4 °F 54% 29.92 in 10.0 mi SE 11.5 mph - N/A   Clear
10:15 PM 55.4 °F - 37.4 °F 51% 29.91 in 10.0 mi SSE 13.8 mph 19.6 mph N/A   Clear
10:55 PM 51.8 °F - 37.4 °F 58% 29.91 in 10.0 mi SSE 11.5 mph - N/A   Clear
11:15 PM 51.8 °F - 37.4 °F 58% 29.91 in 10.0 mi SSE 11.5 mph - N/A   Clear
11:35 PM 51.8 °F - 37.4 °F 58% 29.91 in 10.0 mi SSE 10.4 mph - N/A   Clear
11:55 PM 48.2 °F - 37.4 °F 66% 29.91 in 10.0 mi SE 9.2 mph - N/A   Clear